Location: Ash Observatory
(39.7321°N, 75.2004°W)
Time: 00:05:12
(UTC-04:00)

ISS - Pass Details

Date: 28 March 2019
Orbit: 408 x 410 km, 51.6° (Epoch: 22 April)

Event Time Altitude Azimuth Distance (km) Brightness Sun altitude
Rises 20:30:40 0° 294° (WNW) 2,336 1.9 -14.0°
Reaches altitude 10° 20:33:57 10° 330° (NNW) 1,475 -0.3 -14.6°
Maximum altitude 20:35:10 12° 352° (N) 1,383 -0.8 -14.8°
Drops below altitude 10° 20:36:24 10° 13° (NNE) 1,475 -0.9 -15.1°
Enters shadow 20:38:07 - 36° (NE) 1,852 -0.7 -15.4°
